Tracking 20945 objects as of 8-Jul-2020
HD Live streaming from Space Station
objects crossing your sky now

SL-3 R/B

Track SL-3 R/B now!
10-day predictions
SL-3 R/B is classified as:


NORAD ID: 4814
Int'l Code: 1970-113B
Perigee: 450.5 km
Apogee: 483.2 km
Inclination: 81.1 °
Period: 93.8 minutes
Semi major axis: 6837 km
RCS: 6.542 m2 (large)
Launch date: December 18, 1970
Source: Commonwealth of Independent States (former USSR) (CIS)
Launch site: PLESETSK MISSILE AND SPACE COMPLEX (PKMTR)

Note: This is a ROCKET BODY
aabbcc
Your satellite tracking list
Your tracking list is empty




NASA's NSSDC Master Catalog

Two Line Element Set (TLE):
1  4814U 70113B   20190.56633954 +.00000757 +00000-0 +20902-4 0  9998
2  4814 081.1423 131.2708 0023925 195.3158 164.7360 15.35412654706379
Source of the keplerian elements: AFSPC